Flag for India Weather past 2 weeks in Hoshiarpur, Punjab, India

Now
41 °F

Fog.


Feels Like: 39 °F
Forecast: 35 / 64 °F
Wind: 3 mph from North

Location: Amritsar Airport

Current Time: Dec 28, 2014 at 10:01:16 AM

Latest Report: Dec 28, 2014 at 9:00 AM


Visibility: 0 mi

Pressure: 30.18 "Hg

Humidity: 100%

Dew point: 41 °F

Location of HoshiarpurLocation

Historic Weather in Hoshiarpur — Graph

°F

Hoshiarpur temperature yesterday

Maximum temperature yesterday: 50 °F (at 3:30 PM)
Minimum temperature yesterday: 41 °F (at 12:00 AM)
Average temperature yesterday: 46 °F

Past Weeks' High & Low Weather Summary

 TemperatureHumidityPressure
High66 °F (Dec 13, 2:00 PM)100% (Dec 14, 7:30 AM)30.27 "Hg (Dec 14, 7:30 AM)
Low37 °F (Dec 16, 7:30 AM)46% (Dec 23, 2:30 PM)29.71 "Hg (Dec 22, 1:30 PM)
Average49 °F91%30.10 "Hg
* Reported Dec 13 8:00 AM — Dec 28 8:00 AM, Hoshiarpur, Weather by CustomWeather, © 2014

Note: Actual official high and low records may vary slightly from our data, if they occured in-between our weather recording intervals... More about our weather records

Advertising

Hoshiarpur weather history for previous 24 hours

 ConditionsComfort  
Time TempWeatherWind HumidityBarometerVisibility
8:00 AM
Dec 28
43 °FFog.2 mph93%30.15 "Hg1 mi
7:30 AM43 °FFog.No wind93%30.15 "Hg1 mi
7:00 AM43 °FFog.No wind93%30.15 "Hg1 mi
6:30 AM43 °FFog.No wind93%30.12 "Hg0 mi
6:00 AM43 °FFog.2 mph100%30.12 "Hg0 mi
5:30 AM45 °FFog.2 mph93%30.12 "Hg0 mi
5:00 AM45 °FFog.No wind93%30.12 "Hg0 mi
4:30 AM45 °FFog.No wind93%30.12 "Hg0 mi
4:00 AM45 °FFog.No wind93%30.12 "Hg0 mi
3:30 AM45 °FFog.No wind93%30.12 "Hg0 mi
3:00 AM45 °FFog.No wind100%30.12 "Hg0 mi
2:30 AM45 °FFog.No wind100%30.12 "Hg0 mi
2:00 AM45 °FFog.No wind100%30.12 "Hg0 mi
1:00 AM45 °FFog.No wind100%30.12 "Hg1 mi
12:30 AM45 °FFog.No wind100%30.12 "Hg1 mi
12:00 AM46 °FFog.No wind93%30.12 "Hg1 mi
11:30 PM
Dec 27
46 °FFog.No wind93%30.12 "Hg1 mi
11:00 PM46 °FFog.No wind93%30.12 "Hg1 mi
10:30 PM46 °FFog.No wind93%30.12 "Hg1 mi
10:00 PM46 °FFog.No wind93%30.12 "Hg1 mi
9:00 PM46 °FFog.No wind93%30.12 "Hg1 mi
8:30 PM46 °FFog.5 mph93%30.12 "Hg1 mi
7:30 PM46 °FFog.7 mph93%30.09 "Hg1 mi
7:00 PM48 °FFog.No wind94%30.09 "Hg1 mi
6:30 PM48 °FFog.2 mph94%30.09 "Hg1 mi
6:00 PM48 °FFog.2 mph87%30.07 "Hg1 mi
5:30 PM48 °FFog.5 mph87%30.07 "Hg1 mi
5:00 PM48 °FFog.5 mph94%30.07 "Hg1 mi
4:30 PM48 °FFog.No wind94%30.04 "Hg1 mi
4:00 PM48 °FFog.3 mph94%30.04 "Hg1 mi
3:30 PM50 °FFog.No wind88%30.04 "Hg1 mi
3:00 PM48 °FFog.2 mph87%30.04 "Hg1 mi
2:30 PM48 °FFog.1 mph94%30.04 "Hg1 mi
2:00 PM48 °FFog.1 mph94%30.04 "Hg1 mi
1:30 PM48 °FFog.2 mph94%30.04 "Hg1 mi
1:00 PM46 °FFog.1 mph100%30.04 "Hg1 mi
12:30 PM46 °FFog.1 mph100%30.07 "Hg1 mi
Weather by CustomWeather, © 2014

See weather overviewHow to use our weather pages